When you browse on this site, cookies collect data to enhance your experience and personalize the content and advertising you see.
Visit our Privacy Policy to learn more. By continuing to use the site, you agree to this use of cookies and data.
  • In Schweiz
  • Länderverzeichnis
  • Für 7 Tage
  • Wassertemperatur
  • Wetterkarte
  • Widgets
  • user-avatar
    Anmelden

    Stündliche Wetter Idshewan

    Heute, 29 Mai, Freitag

    Zeit Temperatur Niederschläge Wind Luftdruck Luftfeuchtigkeit
    00:00 +21°C° 0 mm 1 m/S 693 mmHg 78%
    01:00 +20°C° 0 mm 1 m/S 693 mmHg 79%
    02:00 +20°C° 0 mm 1 m/S 692 mmHg 80%
    03:00 +20°C° 0 mm 1 m/S 692 mmHg 77%
    04:00 +20°C° 0 mm 1 m/S 692 mmHg 77%
    05:00 +21°C° 0 mm 1 m/S 692 mmHg 77%
    06:00 +21°C° 0 mm 1 m/S 692 mmHg 76%
    07:00 +23°C° 0 mm 1 m/S 692 mmHg 72%
    08:00 +25°C° 0 mm 1 m/S 692 mmHg 67%
    09:00 +27°C° 0 mm 2 m/S 691 mmHg 63%
    10:00 +27°C° 0.2 mm 2 m/S 691 mmHg 61%
    11:00 +28°C° 0.2 mm 2 m/S 691 mmHg 60%
    12:00 +29°C° 0.2 mm 2 m/S 690 mmHg 59%
    13:00 +29°C° 0.7 mm 2 m/S 690 mmHg 61%
    14:00 +28°C° 0.7 mm 2 m/S 689 mmHg 62%
    15:00 +29°C° 0 mm 2 m/S 689 mmHg 59%
    16:00 +27°C° 0.5 mm 2 m/S 689 mmHg 67%
    17:00 +26°C° 0.5 mm 2 m/S 689 mmHg 74%
    18:00 +24°C° 0.5 mm 2 m/S 689 mmHg 81%
    19:00 +23°C° 0.2 mm 1 m/S 689 mmHg 84%
    20:00 +21°C° 0.2 mm 1 m/S 690 mmHg 86%
    21:00 +20°C° 0.2 mm 1 m/S 690 mmHg 89%
    22:00 +19°C° 0.1 mm 1 m/S 690 mmHg 85%
    23:00 +19°C° 0.1 mm 1 m/S 690 mmHg 81%

    Morgen, 30 Mai, Samstag

    Zeit Temperatur Niederschläge Wind Luftdruck Luftfeuchtigkeit
    00:00 +17°C° 0.1 mm 2 m/S 690 mmHg 78%
    01:00 +17°C° 0 mm 2 m/S 690 mmHg 75%
    02:00 +17°C° 0 mm 2 m/S 690 mmHg 73%
    03:00 +16°C° 0 mm 2 m/S 690 mmHg 71%
    04:00 +17°C° 0 mm 2 m/S 690 mmHg 72%
    05:00 +17°C° 0 mm 2 m/S 690 mmHg 73%
    06:00 +18°C° 0 mm 2 m/S 691 mmHg 74%
    07:00 +21°C° 0 mm 1 m/S 691 mmHg 67%
    08:00 +23°C° 0 mm 1 m/S 691 mmHg 61%
    09:00 +25°C° 0 mm 1 m/S 691 mmHg 54%
    10:00 +26°C° 0.1 mm 1 m/S 691 mmHg 54%
    11:00 +27°C° 0.1 mm 2 m/S 691 mmHg 53%
    12:00 +27°C° 0.1 mm 2 m/S 691 mmHg 52%
    13:00 +28°C° 0.3 mm 2 m/S 691 mmHg 53%
    14:00 +28°C° 0.3 mm 2 m/S 691 mmHg 54%
    15:00 +28°C° 0.3 mm 2 m/S 691 mmHg 54%
    16:00 +27°C° 0.3 mm 2 m/S 690 mmHg 61%
    17:00 +26°C° 0.3 mm 1 m/S 690 mmHg 67%
    18:00 +25°C° 0.3 mm 1 m/S 690 mmHg 74%
    19:00 +23°C° 0.1 mm 1 m/S 690 mmHg 76%
    20:00 +21°C° 0.1 mm 1 m/S 691 mmHg 78%
    21:00 +17°C° 0.1 mm 0 m/S 691 mmHg 81%
    22:00 +16°C° 0 mm 0 m/S 691 mmHg 82%
    23:00 +16°C° 0 mm 0 m/S 691 mmHg 84%

    übermorgen, 31 Mai, Sonntag

    Zeit Temperatur Niederschläge Wind Luftdruck Luftfeuchtigkeit
    00:00 +15°C° 0 mm 0 m/S 692 mmHg 85%
    01:00 +15°C° 0 mm 0 m/S 692 mmHg 87%
    02:00 +14°C° 0 mm 0 m/S 692 mmHg 89%
    03:00 +13°C° 0 mm 0 m/S 692 mmHg 90%
    04:00 +14°C° 0 mm 0 m/S 692 mmHg 90%
    05:00 +15°C° 0 mm 0 m/S 692 mmHg 89%
    06:00 +15°C° 0 mm 0 m/S 693 mmHg 88%
    07:00 +19°C° 0 mm 1 m/S 693 mmHg 84%
    08:00 +20°C° 0 mm 1 m/S 693 mmHg 80%
    09:00 +20°C° 0 mm 2 m/S 693 mmHg 76%
    10:00 +21°C° 0 mm 2 m/S 693 mmHg 73%
    11:00 +23°C° 0 mm 2 m/S 693 mmHg 70%
    12:00 +24°C° 0 mm 2 m/S 693 mmHg 67%
    13:00 +24°C° 0.1 mm 2 m/S 692 mmHg 66%
    14:00 +24°C° 0.1 mm 2 m/S 692 mmHg 65%
    15:00 +25°C° 0.1 mm 2 m/S 692 mmHg 65%
    16:00 +24°C° 0.1 mm 2 m/S 692 mmHg 68%
    17:00 +24°C° 0.1 mm 1 m/S 692 mmHg 71%
    18:00 +23°C° 0.1 mm 1 m/S 692 mmHg 75%
    19:00 +22°C° 0 mm 1 m/S 692 mmHg 78%
    20:00 +20°C° 0 mm 1 m/S 692 mmHg 81%
    21:00 +18°C° 0 mm 1 m/S 692 mmHg 84%
    22:00 +18°C° 0 mm 1 m/S 692 mmHg 83%
    23:00 +18°C° 0 mm 1 m/S 691 mmHg 82%

    1 Juni, Montag

    Zeit Temperatur Niederschläge Wind Luftdruck Luftfeuchtigkeit
    00:00 +16°C° 0 mm 1 m/S 691 mmHg 82%
    01:00 +16°C° 0 mm 1 m/S 691 mmHg 82%
    02:00 +16°C° 0 mm 1 m/S 691 mmHg 83%
    03:00 +15°C° 0 mm 0 m/S 691 mmHg 84%
    04:00 +15°C° 0 mm 0 m/S 691 mmHg 84%
    05:00 +16°C° 0 mm 0 m/S 692 mmHg 84%
    06:00 +17°C° 0 mm 0 m/S 692 mmHg 84%
    07:00 +20°C° 0 mm 1 m/S 692 mmHg 81%
    08:00 +21°C° 0 mm 1 m/S 691 mmHg 78%
    09:00 +21°C° 0 mm 2 m/S 691 mmHg 75%
    10:00 +23°C° 0 mm 2 m/S 691 mmHg 74%
    11:00 +23°C° 0 mm 2 m/S 691 mmHg 73%
    12:00 +24°C° 0 mm 2 m/S 691 mmHg 72%
    13:00 +24°C° 0.1 mm 2 m/S 691 mmHg 70%
    14:00 +25°C° 0.1 mm 2 m/S 690 mmHg 68%
    15:00 +25°C° 0.1 mm 2 m/S 690 mmHg 66%
    16:00 +25°C° 0.2 mm 2 m/S 690 mmHg 70%
    17:00 +24°C° 0.2 mm 1 m/S 690 mmHg 74%
    18:00 +24°C° 0.2 mm 1 m/S 690 mmHg 78%
    19:00 +22°C° 0 mm 1 m/S 690 mmHg 78%
    20:00 +21°C° 0 mm 1 m/S 690 mmHg 78%
    21:00 +18°C° 0 mm 2 m/S 690 mmHg 79%
    22:00 +18°C° 0 mm 2 m/S 690 mmHg 75%
    23:00 +18°C° 0 mm 2 m/S 690 mmHg 71%

    2 Juni, Dienstag

    Zeit Temperatur Niederschläge Wind Luftdruck Luftfeuchtigkeit
    00:00 +17°C° 0 mm 2 m/S 690 mmHg 67%
    01:00 +17°C° 0 mm 2 m/S 689 mmHg 65%
    02:00 +17°C° 0 mm 2 m/S 689 mmHg 63%
    03:00 +16°C° 0 mm 2 m/S 689 mmHg 61%
    04:00 +17°C° 0 mm 2 m/S 689 mmHg 63%
    05:00 +18°C° 0 mm 2 m/S 689 mmHg 65%
    06:00 +18°C° 0 mm 2 m/S 689 mmHg 67%
    07:00 +21°C° 0 mm 2 m/S 690 mmHg 61%
    08:00 +24°C° 0 mm 2 m/S 690 mmHg 55%
    09:00 +26°C° 0 mm 2 m/S 690 mmHg 49%
    10:00 +27°C° 0 mm 2 m/S 690 mmHg 48%
    11:00 +28°C° 0 mm 3 m/S 690 mmHg 47%
    12:00 +29°C° 0 mm 3 m/S 690 mmHg 45%
    13:00 +29°C° 0 mm 3 m/S 689 mmHg 50%
    14:00 +28°C° 0 mm 2 m/S 689 mmHg 55%
    15:00 +28°C° 0 mm 2 m/S 688 mmHg 60%
    16:00 +27°C° 0.1 mm 2 m/S 689 mmHg 64%
    17:00 +27°C° 0.1 mm 1 m/S 689 mmHg 67%
    18:00 +26°C° 0.1 mm 1 m/S 689 mmHg 70%
    19:00 +25°C° 0 mm 1 m/S 689 mmHg 69%
    20:00 +23°C° 0 mm 2 m/S 689 mmHg 68%
    21:00 +20°C° 0 mm 2 m/S 689 mmHg 67%
    22:00 +20°C° 0 mm 2 m/S 689 mmHg 66%
    23:00 +19°C° 0 mm 2 m/S 689 mmHg 65%

    3 Juni, Mittwoch

    Zeit Temperatur Niederschläge Wind Luftdruck Luftfeuchtigkeit
    00:00 +19°C° 0 mm 2 m/S 689 mmHg 63%
    01:00 +18°C° 0 mm 2 m/S 689 mmHg 64%
    02:00 +18°C° 0 mm 2 m/S 689 mmHg 64%
    03:00 +18°C° 0 mm 2 m/S 689 mmHg 64%
    04:00 +18°C° 0 mm 3 m/S 689 mmHg 64%
    05:00 +18°C° 0 mm 3 m/S 689 mmHg 64%
    06:00 +19°C° 0 mm 3 m/S 690 mmHg 64%
    07:00 +21°C° 0 mm 2 m/S 690 mmHg 58%
    08:00 +24°C° 0 mm 2 m/S 690 mmHg 52%
    09:00 +26°C° 0 mm 2 m/S 691 mmHg 45%
    10:00 +27°C° 0 mm 2 m/S 691 mmHg 44%
    11:00 +28°C° 0 mm 2 m/S 691 mmHg 42%
    12:00 +29°C° 0 mm 2 m/S 691 mmHg 41%
    13:00 +29°C° 0 mm 2 m/S 691 mmHg 41%
    14:00 +29°C° 0 mm 2 m/S 691 mmHg 41%
    15:00 +30°C° 0 mm 2 m/S 691 mmHg 41%
    16:00 +29°C° 0 mm 2 m/S 691 mmHg 48%
    17:00 +28°C° 0 mm 2 m/S 691 mmHg 55%
    18:00 +27°C° 0 mm 1 m/S 691 mmHg 62%
    19:00 +25°C° 0 mm 2 m/S 691 mmHg 63%
    20:00 +23°C° 0 mm 2 m/S 691 mmHg 64%
    21:00 +20°C° 0 mm 2 m/S 691 mmHg 65%
    22:00 +20°C° 0 mm 2 m/S 691 mmHg 64%
    23:00 +20°C° 0 mm 2 m/S 691 mmHg 63%
    Mehr zeigen